Regional Weather Roundup
Issued by NWS Green Bay, WI

Home | Current Version | Previous Version | Text Only | Print | Product List | Glossary On
Versions: 1 2 3 4 5 6 7 8 9 10 11 12 13 14 15 16 17 18 19 20 21 22 23 24 25 26 27 28 29 30 31 32 33 34 35 36 37 38 39 40 41 42 43 44 45 46 47 48 49 50
000
ASUS43 KGRB 261211
RWRGRB

NORTH-CENTRAL AND NORTHEAST WISCONSIN REGIONAL WEATHER ROUNDUP
NATIONAL WEATHER SERVICE GREEN BAY WI
700 AM CDT MON JUN 26 2017

WIZ005-009-010>012-018-019-261300-
NORTH CENTRAL WISCONSIN

CITY           SKY/WX    TMP DP  RH WIND       PRES   REMARKS
IRONWOOD       LGT RAIN  47  46  97 NW10      30.06R
MANITOWISH WTR DRIZZLE   45  45 100 NW8       30.04R
ARBOR VITAE    CLOUDY    46  44  93 NW9       30.03S
EAGLE RIVER    CLOUDY    46  44  94 NW12G17   30.01S
LAND O LAKES   CLOUDY    46  44  93 NW6       30.02S
RHINELANDER    CLOUDY    46  44  93 W10       30.04R
PHILLIPS       DRIZZLE   44  44  99 NW6       30.08R
ANTIGO         PTSUNNY   47  44  89 NW15G22   30.04R
TOMAHAWK       NOT AVBL
MERRILL        PTSUNNY   48  44  87 NW8       30.07R
$$

WIZ013-073-261300-
NORTHEAST WISCONSIN

CITY           SKY/WX    TMP DP  RH WIND       PRES   REMARKS
IRON MOUNTAIN  CLOUDY    49  44  83 NW9       29.97S
MARINETTE      CLOUDY    51  46  83 VRB6      30.00S
OCONTO         SUNNY     50  46  86 W13       30.01S
$$

WIZ017-030-035>037-045-261300-
CENTRAL WISCONSIN

CITY           SKY/WX    TMP DP  RH WIND       PRES   REMARKS
MEDFORD        SUNNY     46  42  88 NW8       30.08S
WAUSAU         MOSUNNY   48  44  86 W15       30.05S
MOSINEE        PTSUNNY   46  46 100 W8        30.08S
MARSHFIELD     MOSUNNY   48  43  82 NW10      30.09R
WISC RAPIDS    SUNNY     49  46  90 NW10      30.10S
STEVENS POINT  PTSUNNY   46  45  93 NW5       30.08S
WAUPACA        SUNNY     52  48  87 W8        30.07R
SHAWANO        MOSUNNY   52  47  83 W6        30.04S
CLINTONVILLE   MOSUNNY   50  45  81 W10G17    30.05S
WAUTOMA        SUNNY     51  47  86 W9        30.09S
$$

WIZ038-039-048-051-261300-
FOX VALLEY

CITY           SKY/WX    TMP DP  RH WIND       PRES   REMARKS
NWS GREEN BAY  SUNNY     53  50  89 W12       30.04S
APPLETON       PTSUNNY   52  48  87 W10       30.04S
OSHKOSH        SUNNY     52  47  83 W7        30.06S
FOND DU LAC    SUNNY     53  46  77 W10       30.07S
$$

WIZ022-050-052-261300-
EAST CENTRAL WISCONSIN

CITY           SKY/WX    TMP DP  RH WIND       PRES   REMARKS
EPHRAIM        CLOUDY    51  47  85 W9G17     29.98R
WASHINGTON ISL CLOUDY    52  49  87 W8        29.96R
STURGEON BAY     N/A     53  47  79 W10         N/A
MANITOWOC      SUNNY     54  47  77 W10       30.04S
SHEBOYGAN      SUNNY     54  51  90 W8        30.05S
$$

LMZ563-521-522-541>543-261300-
LAKESHORE

STATION/POSITION TIME  TEMP    WIND        PRES    VSBY  WAVE
                       AIR SEA DIR/SP/G                  HT/PER
                 (UTC) (F)     (DEG/KT/KT) (MB)    (MI)  (FT/S)
SHEBOYGAN LKSHOR 1200   54     280/ 11/ 13 1017.4S
KEWAUNEE LKSHORE 1148   53     280/  8/ 12 1016.1R
NORTHPORT PIER   1140   53     290/  7/ 14 1014.9R
N MID LAKE BUOY  1150   54 57   30/  8/  8 1014.8R         2/ 4
S GREEN BAY BUOY 1200   54     270/ 16/ 21 1015.9
CHAMBERS ISLAND  1140   53     230/  7/ 15 1014.9S
MENOMINEE LKSHOR 1148          250/  9/ 13 1014.9R
$$




USA.gov is the U.S. government's official web portal to all federal, state and local government web resources and services.